Weather History for KAPN - September, 2012

Change the Weather History Date:

Thursday, September 27, 2012

  Actual Average Record
Temperature  
Mean Temperature 48 °F 53 °F  
Max Temperature 63 °F 64 °F 83 °F (1979)
Min Temperature 33 °F 43 °F 25 °F (1989)
Degree Days  
Heating Degree Days 17 12  
Month to date heating degree days 214 203  
Since 1 July heating degree days 256 318  
Cooling Degree Days 0 0  
Month to date cooling degree days 24 21  
Year to date cooling degree days 482 287  
Moisture  
Dew Point 39 °F    
Average Humidity 74    
Maximum Humidity 100    
Minimum Humidity 48    
Precipitation  
Precipitation 0.00 in 0.09 in 0.91 in (1944)
Month to date precipitation 1.61 2.64  
Year to date precipitation 19.61 21.42  
Sea Level Pressure  
Sea Level Pressure 30.26 in    
Wind  
Wind Speed 3 mph (North)    
Max Wind Speed 10 mph    
Max Gust Speed 14 mph    
Visibility 10 miles    
Events      
T = Trace of Precipitation, MM = Missing Value Source: NWS Daily Summary

Daily Weather History Graph

Daily Weather History Graph

Search for Another Location

Airport or City:

Trip Planner

Search our weather history database for the weather conditions in past years. The results will help you decide how hot, cold, wet, or windy it might be!

Date:

Astronomy

Sep. 27, 2012 Rise Set
Actual Time 7:27 AM EDT 7:21 PM EDT
Civil Twilight 6:58 AM EDT 7:50 PM EDT
Nautical Twilight 6:24 AM EDT 8:24 PM EDT
Astronomical Twilight 5:49 AM EDT 8:59 PM EDT
Moon 5:55 PM EDT (9/27) 4:50 AM EDT (9/27)
Length of Visible Light 12h 51m
Length of Day
11h 53m
Waxing Gibbous, 94% of the Moon is Illuminated
Sep 27
Waxing Gibbous
Sep 29
Full
Oct 8
Last Quarter
Oct 15
New
Oct 21
First Quarter

Hourly Weather History & Observations

Time (EDT) Temp. Windchill Dew Point Humidity Pressure Visibility Wind Dir Wind Speed Gust Speed Precip Events Conditions
12:54 AM 39.0 °F - 37.0 °F 93% 30.22 in 10.0 mi Calm Calm - N/A   Clear
1:54 AM 36.0 °F - 34.0 °F 93% 30.23 in 10.0 mi Calm Calm - N/A   Clear
2:54 AM 35.1 °F - 34.0 °F 96% 30.25 in 10.0 mi Calm Calm - N/A   Clear
3:54 AM 37.0 °F 34.5 °F 36.0 °F 96% 30.25 in 10.0 mi WSW 3.5 mph - N/A   Clear
4:54 AM 37.9 °F - 37.0 °F 97% 30.25 in 10.0 mi Calm Calm - N/A   Clear
5:54 AM 37.0 °F - 36.0 °F 96% 30.28 in 10.0 mi Calm Calm - N/A   Clear
6:54 AM 35.1 °F - 34.0 °F 96% 30.29 in 10.0 mi Calm Calm - N/A   Clear
7:54 AM 36.0 °F - 34.0 °F 93% 30.30 in 10.0 mi Calm Calm - N/A   Clear
8:00 AM 35.6 °F - 33.8 °F 93% 30.29 in 10.0 mi Calm Calm - N/A   Partly Cloudy
8:54 AM 41.0 °F 39.0 °F 37.9 °F 89% 30.31 in 10.0 mi NW 3.5 mph - N/A   Partly Cloudy
9:54 AM 48.9 °F - 43.0 °F 80% 30.32 in 10.0 mi Calm Calm - N/A   Partly Cloudy
10:54 AM 54.0 °F - 44.1 °F 69% 30.32 in 10.0 mi NNW 3.5 mph - N/A   Scattered Clouds
11:54 AM 57.0 °F - 42.1 °F 57% 30.30 in 10.0 mi Calm Calm - N/A   Scattered Clouds
12:54 PM 57.9 °F - 41.0 °F 53% 30.29 in 10.0 mi Calm Calm - N/A   Scattered Clouds
1:54 PM 61.0 °F - 42.1 °F 50% 30.27 in 10.0 mi Calm Calm - N/A   Partly Cloudy
2:54 PM 60.1 °F - 41.0 °F 49% 30.25 in 10.0 mi NNE 6.9 mph - N/A   Partly Cloudy
3:54 PM 63.0 °F - 42.1 °F 46% 30.23 in 10.0 mi NNE 6.9 mph - N/A   Partly Cloudy
4:54 PM 57.9 °F - 45.0 °F 62% 30.22 in 10.0 mi NE 8.1 mph - N/A   Mostly Cloudy
5:54 PM 57.0 °F - 44.1 °F 62% 30.22 in 10.0 mi NE 10.4 mph - N/A   Partly Cloudy
6:54 PM 54.0 °F - 43.0 °F 66% 30.23 in 10.0 mi NE 5.8 mph - N/A   Clear
7:54 PM 48.9 °F - 44.1 °F 83% 30.24 in 10.0 mi NE 3.5 mph - N/A   Clear
8:54 PM 45.0 °F - 42.1 °F 90% 30.23 in 10.0 mi Calm Calm - N/A   Clear
9:54 PM 42.1 °F 40.2 °F 39.9 °F 92% 30.23 in 10.0 mi West 3.5 mph - N/A   Clear
10:54 PM 41.0 °F 38.0 °F 39.0 °F 93% 30.23 in 10.0 mi West 4.6 mph - N/A   Clear
11:54 PM 39.0 °F - 37.0 °F 93% 30.22 in 10.0 mi Calm Calm - N/A   Clear